Time,TemperatureF,DewpointF,PressureIn,WindDirection,WindDirectionDegrees,WindSpeedMPH,WindSpeedGustMPH,Humidity,HourlyPrecipIn,Conditions,Clouds,dailyrainin,SoftwareType,DateUTC
2013-02-06 00:03:00,13.0,6.0,29.64,SE,135,3.0,3.0,75,0.00,,,0.00,TxWx,2013-02-06 05:03:00,
2013-02-06 00:08:00,13.0,6.0,29.64,SE,135,2.0,3.0,77,0.00,,,0.00,TxWx,2013-02-06 05:08:00,
2013-02-06 00:13:00,13.0,6.0,29.64,South,180,0.0,1.0,77,0.00,,,0.00,TxWx,2013-02-06 05:13:00,
2013-02-06 00:18:00,13.0,6.0,29.64,South,180,1.0,1.0,77,0.00,,,0.00,TxWx,2013-02-06 05:18:00,
2013-02-06 00:23:00,13.0,6.0,29.64,South,180,0.0,1.0,77,0.00,,,0.00,TxWx,2013-02-06 05:23:00,
2013-02-06 00:29:00,13.0,6.0,29.64,SE,135,1.0,1.0,77,0.00,,,0.00,TxWx,2013-02-06 05:29:00,
2013-02-06 00:34:00,13.0,6.0,29.63,SSE,157,1.0,1.0,77,0.00,,,0.00,TxWx,2013-02-06 05:34:00,
2013-02-06 00:39:00,13.0,6.0,29.63,ESE,112,1.0,1.0,77,0.00,,,0.00,TxWx,2013-02-06 05:39:00,
2013-02-06 00:44:00,13.0,6.0,29.63,SSW,202,0.0,0.0,78,0.00,,,0.00,TxWx,2013-02-06 05:44:00,
2013-02-06 00:49:00,13.0,6.0,29.63,South,180,0.0,0.0,78,0.00,,,0.00,TxWx,2013-02-06 05:49:00,
2013-02-06 00:54:00,13.0,6.0,29.63,South,180,0.0,0.0,78,0.00,,,0.00,TxWx,2013-02-06 05:54:00,
2013-02-06 00:59:00,13.0,6.0,29.63,South,180,0.0,0.0,78,0.00,,,0.00,TxWx,2013-02-06 05:59:00,
2013-02-06 01:04:00,13.0,6.0,29.63,South,180,0.0,1.0,78,0.00,,,0.00,TxWx,2013-02-06 06:04:00,
2013-02-06 01:09:00,13.0,6.0,29.63,South,180,0.0,0.0,78,0.00,,,0.00,TxWx,2013-02-06 06:09:00,
2013-02-06 01:14:00,13.0,6.0,29.63,South,180,1.0,1.0,78,0.00,,,0.00,TxWx,2013-02-06 06:14:00,
2013-02-06 01:19:00,13.0,7.0,29.63,South,180,0.0,0.0,79,0.00,,,0.00,TxWx,2013-02-06 06:19:00,
2013-02-06 01:24:00,13.0,7.0,29.63,SE,135,1.0,1.0,79,0.00,,,0.00,TxWx,2013-02-06 06:24:00,
2013-02-06 01:29:00,13.0,7.0,29.63,South,180,0.0,1.0,79,0.00,,,0.00,TxWx,2013-02-06 06:29:00,
2013-02-06 01:34:00,13.0,7.0,29.64,SSW,202,0.0,1.0,79,0.00,,,0.00,TxWx,2013-02-06 06:34:00,
2013-02-06 01:39:00,13.0,7.0,29.64,ESE,112,0.0,0.0,79,0.00,,,0.00,TxWx,2013-02-06 06:39:00,
2013-02-06 01:44:00,13.0,7.0,29.64,SE,135,1.0,1.0,80,0.00,,,0.00,TxWx,2013-02-06 06:44:00,
2013-02-06 01:50:00,13.0,7.0,29.64,NE,45,1.0,1.0,80,0.00,,,0.00,TxWx,2013-02-06 06:50:00,
2013-02-06 01:55:00,13.0,7.0,29.64,South,180,0.0,1.0,80,0.00,,,0.00,TxWx,2013-02-06 06:55:00,
2013-02-06 02:00:00,13.0,7.0,29.64,SSE,157,0.0,1.0,80,0.00,,,0.00,TxWx,2013-02-06 07:00:00,
2013-02-06 02:05:00,13.0,7.0,29.64,South,180,0.0,0.0,80,0.00,,,0.00,TxWx,2013-02-06 07:05:00,
2013-02-06 02:10:00,13.0,7.0,29.64,SE,135,1.0,2.0,81,0.00,,,0.00,TxWx,2013-02-06 07:10:00,
2013-02-06 02:15:00,13.0,7.0,29.64,SSE,157,0.0,1.0,81,0.00,,,0.00,TxWx,2013-02-06 07:15:00,
2013-02-06 02:20:00,13.0,7.0,29.64,SE,135,1.0,2.0,81,0.00,,,0.00,TxWx,2013-02-06 07:20:00,
2013-02-06 02:25:00,13.0,7.0,29.64,South,180,0.0,0.0,82,0.00,,,0.00,TxWx,2013-02-06 07:25:00,
2013-02-06 02:30:00,13.0,7.0,29.64,South,180,1.0,1.0,82,0.00,,,0.00,TxWx,2013-02-06 07:30:00,
2013-02-06 02:35:00,13.0,8.0,29.63,SSE,157,1.0,1.0,82,0.00,,,0.00,TxWx,2013-02-06 07:35:00,
2013-02-06 02:36:00,19.0,10.0,29.79,SW,225,9.0,13.0,72,0.00,,,0.00,TxWx,2013-02-06 07:36:00,
2013-02-06 02:37:00,19.0,10.0,29.79,WNW,292,10.0,13.0,72,0.00,,,0.00,TxWx,2013-02-06 07:37:00,
2013-02-06 02:39:00,19.0,10.0,29.79,WSW,247,10.0,10.0,72,0.00,,,0.00,TxWx,2013-02-06 07:39:00,
2013-02-06 02:40:00,13.0,8.0,29.63,SE,135,1.0,1.0,82,0.00,,,0.00,TxWx,2013-02-06 07:40:00,
2013-02-06 02:41:00,20.0,11.0,29.79,WSW,247,9.0,21.0,72,0.00,,,0.00,TxWx,2013-02-06 07:41:00,
2013-02-06 02:46:00,13.0,8.0,29.63,SSE,157,1.0,1.0,83,0.00,,,0.00,TxWx,2013-02-06 07:46:00,
2013-02-06 02:51:00,12.0,7.0,29.63,South,180,0.0,1.0,83,0.00,,,0.00,TxWx,2013-02-06 07:51:00,
2013-02-06 02:56:00,12.0,7.0,29.63,SSW,202,0.0,0.0,83,0.00,,,0.00,TxWx,2013-02-06 07:56:00,
2013-02-06 03:01:00,12.0,7.0,29.63,SSW,202,0.0,1.0,83,0.00,,,0.00,TxWx,2013-02-06 08:01:00,
2013-02-06 03:06:00,12.0,7.0,29.63,SSW,202,1.0,1.0,83,0.00,,,0.00,TxWx,2013-02-06 08:06:00,
2013-02-06 03:11:00,12.0,7.0,29.63,SSW,202,0.0,0.0,84,0.00,,,0.00,TxWx,2013-02-06 08:11:00,
2013-02-06 03:16:00,12.0,7.0,29.63,South,180,0.0,1.0,84,0.00,,,0.00,TxWx,2013-02-06 08:16:00,
2013-02-06 03:21:00,12.0,7.0,29.63,SSW,202,0.0,0.0,84,0.00,,,0.00,TxWx,2013-02-06 08:21:00,
2013-02-06 03:26:00,11.0,6.0,29.63,South,180,1.0,1.0,84,0.00,,,0.00,TxWx,2013-02-06 08:26:00,
2013-02-06 03:31:00,11.0,6.0,29.63,SSW,202,0.0,1.0,84,0.00,,,0.00,TxWx,2013-02-06 08:31:00,
2013-02-06 03:37:00,11.0,6.0,29.63,SE,135,1.0,1.0,84,0.00,,,0.00,TxWx,2013-02-06 08:37:00,
2013-02-06 03:42:00,11.0,6.0,29.64,SSE,157,1.0,1.0,84,0.00,,,0.00,TxWx,2013-02-06 08:42:00,
2013-02-06 03:47:00,11.0,6.0,29.64,South,180,0.0,0.0,85,0.00,,,0.00,TxWx,2013-02-06 08:47:00,
2013-02-06 03:52:00,11.0,6.0,29.64,South,180,0.0,1.0,85,0.00,,,0.00,TxWx,2013-02-06 08:52:00,
2013-02-06 03:57:00,11.0,6.0,29.64,SSW,202,0.0,0.0,85,0.00,,,0.00,TxWx,2013-02-06 08:57:00,
2013-02-06 04:02:00,11.0,6.0,29.64,South,180,1.0,1.0,85,0.00,,,0.00,TxWx,2013-02-06 09:02:00,
2013-02-06 04:07:00,12.0,7.0,29.64,SE,135,1.0,1.0,86,0.00,,,0.00,TxWx,2013-02-06 09:07:00,
2013-02-06 04:12:00,12.0,7.0,29.64,South,180,0.0,0.0,86,0.00,,,0.00,TxWx,2013-02-06 09:12:00,
2013-02-06 04:17:00,12.0,7.0,29.65,South,180,0.0,1.0,86,0.00,,,0.00,TxWx,2013-02-06 09:17:00,
2013-02-06 04:22:00,12.0,8.0,29.65,SSE,157,0.0,0.0,86,0.00,,,0.00,TxWx,2013-02-06 09:22:00,
2013-02-06 04:28:00,12.0,8.0,29.65,SSW,202,0.0,0.0,86,0.00,,,0.00,TxWx,2013-02-06 09:28:00,
2013-02-06 04:33:00,12.0,8.0,29.65,NW,315,1.0,1.0,86,0.00,,,0.00,TxWx,2013-02-06 09:33:00,
2013-02-06 04:38:00,12.0,8.0,29.65,South,180,0.0,0.0,86,0.00,,,0.00,TxWx,2013-02-06 09:38:00,
2013-02-06 04:43:00,12.0,8.0,29.65,SW,225,1.0,1.0,86,0.00,,,0.00,TxWx,2013-02-06 09:43:00,
2013-02-06 04:48:00,12.0,8.0,29.65,South,180,1.0,1.0,86,0.00,,,0.00,TxWx,2013-02-06 09:48:00,
2013-02-06 04:53:00,12.0,8.0,29.65,SSE,157,1.0,1.0,87,0.00,,,0.00,TxWx,2013-02-06 09:53:00,
2013-02-06 04:58:00,12.0,8.0,29.65,South,180,0.0,0.0,87,0.00,,,0.00,TxWx,2013-02-06 09:58:00,
2013-02-06 05:03:00,12.0,8.0,29.65,NNE,22,1.0,1.0,87,0.00,,,0.00,TxWx,2013-02-06 10:03:00,
2013-02-06 05:08:00,12.0,8.0,29.65,SE,135,1.0,1.0,87,0.00,,,0.00,TxWx,2013-02-06 10:08:00,
2013-02-06 05:13:00,12.0,8.0,29.65,SSE,157,1.0,1.0,87,0.00,,,0.00,TxWx,2013-02-06 10:13:00,
2013-02-06 05:18:00,12.0,8.0,29.66,SW,225,1.0,1.0,87,0.00,,,0.00,TxWx,2013-02-06 10:18:00,
2013-02-06 05:24:00,12.0,8.0,29.66,SSW,202,0.0,0.0,87,0.00,,,0.00,TxWx,2013-02-06 10:24:00,
2013-02-06 05:29:00,12.0,8.0,29.66,South,180,0.0,0.0,88,0.00,,,0.00,TxWx,2013-02-06 10:29:00,
2013-02-06 05:34:00,12.0,8.0,29.66,South,180,0.0,1.0,88,0.00,,,0.00,TxWx,2013-02-06 10:34:00,
2013-02-06 05:39:00,12.0,8.0,29.65,East,90,1.0,1.0,88,0.00,,,0.00,TxWx,2013-02-06 10:39:00,
2013-02-06 05:44:00,12.0,8.0,29.65,South,180,0.0,0.0,88,0.00,,,0.00,TxWx,2013-02-06 10:44:00,
2013-02-06 05:49:00,12.0,8.0,29.66,ESE,112,1.0,1.0,88,0.00,,,0.00,TxWx,2013-02-06 10:49:00,
2013-02-06 05:54:00,12.0,8.0,29.66,South,180,0.0,1.0,88,0.00,,,0.00,TxWx,2013-02-06 10:54:00,
2013-02-06 05:59:00,12.0,8.0,29.66,South,180,0.0,1.0,88,0.00,,,0.00,TxWx,2013-02-06 10:59:00,
2013-02-06 06:04:00,12.0,8.0,29.66,South,180,0.0,0.0,88,0.00,,,0.00,TxWx,2013-02-06 11:04:00,
2013-02-06 06:09:00,12.0,8.0,29.66,SSE,157,0.0,0.0,88,0.00,,,0.00,TxWx,2013-02-06 11:09:00,
2013-02-06 06:12:00,16.0,6.0,29.91,SSW,202,3.0,6.0,69,0.00,,,0.00,TxWx,2013-02-06 11:12:00,
2013-02-06 06:13:00,16.0,6.0,29.91,NW,315,13.0,13.0,69,0.00,,,0.00,TxWx,2013-02-06 11:13:00,
2013-02-06 06:14:00,16.0,6.0,29.91,NNW,337,9.0,10.0,69,0.00,,,0.00,TxWx,2013-02-06 11:14:00,
2013-02-06 06:15:00,13.0,9.0,29.66,South,180,1.0,1.0,89,0.00,,,0.00,TxWx,2013-02-06 11:15:00,
2013-02-06 06:20:00,13.0,9.0,29.66,South,180,0.0,0.0,89,0.00,,,0.00,TxWx,2013-02-06 11:20:00,
2013-02-06 06:25:00,13.0,9.0,29.66,NNE,22,1.0,1.0,89,0.00,,,0.00,TxWx,2013-02-06 11:25:00,
2013-02-06 06:30:00,13.0,9.0,29.67,SSW,202,1.0,1.0,89,0.00,,,0.00,TxWx,2013-02-06 11:30:00,
2013-02-06 06:35:00,13.0,9.0,29.67,ESE,112,1.0,1.0,89,0.00,,,0.00,TxWx,2013-02-06 11:35:00,
2013-02-06 06:40:00,13.0,9.0,29.68,West,270,2.0,2.0,89,0.00,,,0.00,TxWx,2013-02-06 11:40:00,
2013-02-06 06:45:00,13.0,9.0,29.68,West,270,3.0,3.0,90,0.00,,,0.00,TxWx,2013-02-06 11:45:00,
2013-02-06 06:50:00,14.0,11.0,29.68,WSW,247,1.0,1.0,90,0.00,,,0.00,TxWx,2013-02-06 11:50:00,
2013-02-06 06:55:00,14.0,11.0,29.68,WSW,247,1.0,1.0,90,0.00,,,0.00,TxWx,2013-02-06 11:55:00,
2013-02-06 07:00:00,15.0,12.0,29.68,SSW,202,1.0,2.0,92,0.00,,,0.00,TxWx,2013-02-06 12:00:00,
2013-02-06 07:06:00,14.0,11.0,29.68,SW,225,3.0,3.0,91,0.00,,,0.00,TxWx,2013-02-06 12:06:00,
2013-02-06 07:11:00,15.0,12.0,29.68,SW,225,3.0,3.0,92,0.00,,,0.00,TxWx,2013-02-06 12:11:00,
2013-02-06 07:16:00,16.0,13.0,29.69,SW,225,3.0,3.0,93,0.00,,,0.00,TxWx,2013-02-06 12:16:00,
2013-02-06 07:21:00,16.0,13.0,29.69,West,270,3.0,4.0,93,0.00,,,0.00,TxWx,2013-02-06 12:21:00,
2013-02-06 07:26:00,16.0,13.0,29.69,SW,225,3.0,3.0,93,0.00,,,0.00,TxWx,2013-02-06 12:26:00,
2013-02-06 07:31:00,16.0,13.0,29.69,SW,225,1.0,1.0,93,0.00,,,0.00,TxWx,2013-02-06 12:31:00,
2013-02-06 07:36:00,16.0,13.0,29.69,WSW,247,2.0,3.0,93,0.00,,,0.00,TxWx,2013-02-06 12:36:00,
2013-02-06 07:41:00,17.0,14.0,29.69,West,270,2.0,2.0,93,0.00,,,0.00,TxWx,2013-02-06 12:41:00,
2013-02-06 07:46:00,17.0,14.0,29.70,WSW,247,1.0,2.0,93,0.00,,,0.00,TxWx,2013-02-06 12:46:00,
2013-02-06 07:51:00,16.0,13.0,29.70,SSW,202,1.0,1.0,93,0.00,,,0.00,TxWx,2013-02-06 12:51:00,
2013-02-06 07:56:00,16.0,13.0,29.70,SW,225,2.0,2.0,94,0.00,,,0.00,TxWx,2013-02-06 12:56:00,
2013-02-06 08:02:00,16.0,14.0,29.70,SW,225,1.0,3.0,94,0.00,,,0.00,TxWx,2013-02-06 13:02:00,
2013-02-06 08:07:00,16.0,14.0,29.71,SW,225,2.0,3.0,94,0.00,,,0.00,TxWx,2013-02-06 13:07:00,
2013-02-06 08:12:00,16.0,15.0,29.71,SSW,202,1.0,1.0,94,0.00,,,0.00,TxWx,2013-02-06 13:12:00,
2013-02-06 08:17:00,17.0,15.0,29.71,SSW,202,3.0,4.0,94,0.00,,,0.00,TxWx,2013-02-06 13:17:00,
2013-02-06 08:22:00,17.0,15.0,29.71,WSW,247,3.0,5.0,95,0.00,,,0.00,TxWx,2013-02-06 13:22:00,
2013-02-06 08:27:00,17.0,15.0,29.71,West,270,4.0,5.0,95,0.00,,,0.00,TxWx,2013-02-06 13:27:00,
2013-02-06 08:32:00,18.0,16.0,29.71,WSW,247,2.0,3.0,95,0.00,,,0.00,TxWx,2013-02-06 13:32:00,
2013-02-06 08:37:00,18.0,16.0,29.71,SSW,202,3.0,3.0,96,0.00,,,0.00,TxWx,2013-02-06 13:37:00,
2013-02-06 08:42:00,18.0,16.0,29.71,SW,225,1.0,2.0,96,0.00,,,0.00,TxWx,2013-02-06 13:42:00,
2013-02-06 08:47:00,18.0,16.0,29.71,WSW,247,3.0,3.0,96,0.00,,,0.00,TxWx,2013-02-06 13:47:00,
2013-02-06 08:53:00,18.0,16.0,29.71,SSW,202,2.0,4.0,96,0.00,,,0.00,TxWx,2013-02-06 13:53:00,
2013-02-06 08:58:00,19.0,17.0,29.71,SW,225,3.0,3.0,96,0.00,,,0.00,TxWx,2013-02-06 13:58:00,
2013-02-06 09:03:00,19.0,17.0,29.71,WSW,247,2.0,2.0,97,0.00,,,0.00,TxWx,2013-02-06 14:03:00,
2013-02-06 09:08:00,19.0,17.0,29.71,West,270,8.0,9.0,97,0.00,,,0.00,TxWx,2013-02-06 14:08:00,
2013-02-06 09:13:00,20.0,18.0,29.71,West,270,6.0,6.0,97,0.00,,,0.00,TxWx,2013-02-06 14:13:00,
2013-02-06 09:18:00,20.0,18.0,29.71,West,270,4.0,4.0,97,0.00,,,0.00,TxWx,2013-02-06 14:18:00,
2013-02-06 09:23:00,20.0,18.0,29.72,WSW,247,6.0,6.0,97,0.00,,,0.00,TxWx,2013-02-06 14:23:00,
2013-02-06 09:28:00,20.0,18.0,29.72,NW,315,7.0,9.0,97,0.00,,,0.00,TxWx,2013-02-06 14:28:00,
2013-02-06 09:33:00,20.0,18.0,29.72,West,270,6.0,6.0,97,0.00,,,0.00,TxWx,2013-02-06 14:33:00,
2013-02-06 09:38:00,20.0,18.0,29.72,WSW,247,5.0,8.0,97,0.00,,,0.00,TxWx,2013-02-06 14:38:00,
2013-02-06 09:44:00,20.0,18.0,29.73,WSW,247,7.0,7.0,97,0.00,,,0.00,TxWx,2013-02-06 14:44:00,
2013-02-06 09:49:00,20.0,18.0,29.73,SW,225,4.0,6.0,97,0.00,,,0.00,TxWx,2013-02-06 14:49:00,
2013-02-06 09:54:00,20.0,18.0,29.73,WSW,247,6.0,6.0,97,0.00,,,0.00,TxWx,2013-02-06 14:54:00,
2013-02-06 09:59:00,20.0,18.0,29.74,SW,225,6.0,11.0,97,0.00,,,0.00,TxWx,2013-02-06 14:59:00,
2013-02-06 10:04:00,20.0,18.0,29.74,SW,225,1.0,2.0,97,0.00,,,0.00,TxWx,2013-02-06 15:04:00,
2013-02-06 10:09:00,20.0,18.0,29.74,WNW,292,5.0,6.0,97,0.00,,,0.00,TxWx,2013-02-06 15:09:00,
2013-02-06 10:14:00,20.0,18.0,29.74,West,270,12.0,14.0,97,0.00,,,0.00,TxWx,2013-02-06 15:14:00,
2013-02-06 10:19:00,20.0,18.0,29.75,WSW,247,6.0,11.0,97,0.00,,,0.00,TxWx,2013-02-06 15:19:00,
2013-02-06 10:24:00,19.0,17.0,29.75,NW,315,6.0,12.0,97,0.00,,,0.00,TxWx,2013-02-06 15:24:00,
2013-02-06 10:29:00,19.0,17.0,29.75,SSW,202,4.0,4.0,96,0.00,,,0.00,TxWx,2013-02-06 15:29:00,
2013-02-06 10:34:00,19.0,17.0,29.75,West,270,6.0,9.0,96,0.00,,,0.00,TxWx,2013-02-06 15:34:00,
2013-02-06 10:40:00,20.0,18.0,29.76,WNW,292,3.0,4.0,96,0.00,,,0.00,TxWx,2013-02-06 15:40:00,
2013-02-06 10:45:00,20.0,18.0,29.76,NNW,337,10.0,10.0,95,0.00,,,0.00,TxWx,2013-02-06 15:45:00,
2013-02-06 10:50:00,20.0,17.0,29.76,West,270,6.0,8.0,93,0.00,,,0.00,TxWx,2013-02-06 15:50:00,
2013-02-06 10:55:00,20.0,17.0,29.76,West,270,3.0,3.0,92,0.00,,,0.00,TxWx,2013-02-06 15:55:00,
2013-02-06 11:00:00,19.0,15.0,29.76,West,270,7.0,8.0,90,0.00,,,0.00,TxWx,2013-02-06 16:00:00,
2013-02-06 11:05:00,20.0,16.0,29.76,WNW,292,7.0,9.0,89,0.00,,,0.00,TxWx,2013-02-06 16:05:00,
2013-02-06 11:10:00,20.0,16.0,29.77,West,270,5.0,6.0,88,0.00,,,0.00,TxWx,2013-02-06 16:10:00,
2013-02-06 11:15:00,19.0,15.0,29.77,WNW,292,6.0,16.0,88,0.00,,,0.00,TxWx,2013-02-06 16:15:00,
2013-02-06 11:20:00,19.0,15.0,29.77,SW,225,5.0,5.0,87,0.00,,,0.00,TxWx,2013-02-06 16:20:00,
2013-02-06 11:25:00,19.0,15.0,29.77,WNW,292,14.0,19.0,87,0.00,,,0.00,TxWx,2013-02-06 16:25:00,
2013-02-06 11:30:00,18.0,14.0,29.77,NW,315,6.0,9.0,86,0.00,,,0.00,TxWx,2013-02-06 16:30:00,
2013-02-06 11:36:00,18.0,13.0,29.78,West,270,3.0,5.0,85,0.00,,,0.00,TxWx,2013-02-06 16:36:00,
2013-02-06 11:41:00,19.0,14.0,29.78,NW,315,6.0,11.0,83,0.00,,,0.00,TxWx,2013-02-06 16:41:00,
2013-02-06 11:46:00,19.0,13.0,29.78,WSW,247,10.0,10.0,81,0.00,,,0.00,TxWx,2013-02-06 16:46:00,
2013-02-06 11:51:00,19.0,13.0,29.78,WSW,247,6.0,8.0,80,0.00,,,0.00,TxWx,2013-02-06 16:51:00,
2013-02-06 11:56:00,20.0,13.0,29.78,NNW,337,3.0,3.0,79,0.00,,,0.00,TxWx,2013-02-06 16:56:00,
2013-02-06 12:01:00,19.0,12.0,29.78,West,270,12.0,13.0,78,0.00,,,0.00,TxWx,2013-02-06 17:01:00,
2013-02-06 12:06:00,19.0,12.0,29.79,West,270,11.0,14.0,78,0.00,,,0.00,TxWx,2013-02-06 17:06:00,
2013-02-06 12:11:00,19.0,13.0,29.79,West,270,8.0,8.0,80,0.00,,,0.00,TxWx,2013-02-06 17:11:00,
2013-02-06 12:16:00,19.0,12.0,29.79,WNW,292,13.0,13.0,78,0.00,,,0.00,TxWx,2013-02-06 17:16:00,
2013-02-06 12:21:00,19.0,11.0,29.79,WNW,292,5.0,5.0,74,0.00,,,0.00,TxWx,2013-02-06 17:21:00,
2013-02-06 12:27:00,19.0,10.0,29.79,WSW,247,6.0,10.0,72,0.00,,,0.00,TxWx,2013-02-06 17:27:00,
2013-02-06 12:32:00,20.0,11.0,29.79,West,270,12.0,17.0,72,0.00,,,0.00,TxWx,2013-02-06 17:32:00,
2013-02-06 12:37:00,19.0,10.0,29.79,West,270,11.0,13.0,72,0.00,,,0.00,TxWx,2013-02-06 17:37:00,
2013-02-06 12:43:00,20.0,11.0,29.79,West,270,10.0,10.0,72,0.00,,,0.00,TxWx,2013-02-06 17:43:00,
2013-02-06 12:48:00,19.0,10.0,29.79,WSW,247,7.0,10.0,71,0.00,,,0.00,TxWx,2013-02-06 17:48:00,
2013-02-06 12:53:00,19.0,10.0,29.79,WNW,292,11.0,13.0,71,0.00,,,0.00,TxWx,2013-02-06 17:53:00,
2013-02-06 12:58:00,19.0,10.0,29.80,SW,225,5.0,10.0,70,0.00,,,0.00,TxWx,2013-02-06 17:58:00,
2013-02-06 13:03:00,19.0,10.0,29.80,WNW,292,10.0,16.0,70,0.00,,,0.00,TxWx,2013-02-06 18:03:00,
2013-02-06 13:08:00,19.0,10.0,29.80,WNW,292,15.0,15.0,69,0.00,,,0.00,TxWx,2013-02-06 18:08:00,
2013-02-06 13:13:00,19.0,9.0,29.80,WSW,247,13.0,13.0,68,0.00,,,0.00,TxWx,2013-02-06 18:13:00,
2013-02-06 13:18:00,19.0,8.0,29.80,North,0,4.0,8.0,65,0.00,,,0.00,TxWx,2013-02-06 18:18:00,
2013-02-06 13:23:00,20.0,9.0,29.80,West,270,17.0,17.0,64,0.00,,,0.00,TxWx,2013-02-06 18:23:00,
2013-02-06 13:28:00,20.0,7.0,29.80,West,270,4.0,5.0,60,0.00,,,0.00,TxWx,2013-02-06 18:28:00,
2013-02-06 13:34:00,21.0,8.0,29.80,WSW,247,10.0,12.0,59,0.00,,,0.00,TxWx,2013-02-06 18:34:00,
2013-02-06 13:39:00,20.0,7.0,29.80,WNW,292,8.0,13.0,59,0.00,,,0.00,TxWx,2013-02-06 18:39:00,
2013-02-06 13:44:00,20.0,7.0,29.80,SW,225,13.0,14.0,59,0.00,,,0.00,TxWx,2013-02-06 18:44:00,
2013-02-06 13:49:00,21.0,8.0,29.81,SW,225,10.0,10.0,60,0.00,,,0.00,TxWx,2013-02-06 18:49:00,
2013-02-06 13:54:00,21.0,8.0,29.81,WNW,292,5.0,10.0,59,0.00,,,0.00,TxWx,2013-02-06 18:54:00,
2013-02-06 13:59:00,21.0,9.0,29.82,WNW,292,6.0,13.0,63,0.00,,,0.00,TxWx,2013-02-06 18:59:00,
2013-02-06 14:00:00,-2.0,-7.0,30.10,South,180,0.0,0.0,83,0.00,,,0.00,TxWx,2013-02-06 19:00:00,
2013-02-06 14:01:00,-3.0,-8.0,30.10,SE,135,1.0,1.0,83,0.00,,,0.00,TxWx,2013-02-06 19:01:00,
2013-02-06 14:02:00,-3.0,-8.0,30.10,SSE,157,1.0,2.0,83,0.00,,,0.00,TxWx,2013-02-06 19:02:00,
2013-02-06 14:03:00,-3.0,-8.0,30.09,SSE,157,1.0,2.0,83,0.00,,,0.00,TxWx,2013-02-06 19:03:00,
2013-02-06 14:04:00,21.0,9.0,29.82,WNW,292,7.0,8.0,63,0.00,,,0.00,TxWx,2013-02-06 19:04:00,
2013-02-06 14:09:00,20.0,9.0,29.83,NW,315,10.0,11.0,65,0.00,,,0.00,TxWx,2013-02-06 19:09:00,
2013-02-06 14:14:00,20.0,10.0,29.83,West,270,12.0,12.0,67,0.00,,,0.00,TxWx,2013-02-06 19:14:00,
2013-02-06 14:19:00,19.0,9.0,29.83,West,270,10.0,10.0,66,0.00,,,0.00,TxWx,2013-02-06 19:19:00,
2013-02-06 14:25:00,19.0,9.0,29.83,WSW,247,9.0,13.0,67,0.00,,,0.00,TxWx,2013-02-06 19:25:00,
2013-02-06 14:30:00,19.0,9.0,29.84,NW,315,5.0,9.0,69,0.00,,,0.00,TxWx,2013-02-06 19:30:00,
2013-02-06 14:35:00,19.0,10.0,29.84,NW,315,14.0,14.0,70,0.00,,,0.00,TxWx,2013-02-06 19:35:00,
2013-02-06 14:40:00,19.0,10.0,29.84,WNW,292,13.0,18.0,71,0.00,,,0.00,TxWx,2013-02-06 19:40:00,
2013-02-06 14:45:00,18.0,9.0,29.85,WNW,292,6.0,6.0,70,0.00,,,0.00,TxWx,2013-02-06 19:45:00,
2013-02-06 14:50:00,19.0,10.0,29.85,West,270,5.0,9.0,71,0.00,,,0.00,TxWx,2013-02-06 19:50:00,
2013-02-06 14:55:00,19.0,9.0,29.85,WNW,292,3.0,5.0,68,0.00,,,0.00,TxWx,2013-02-06 19:55:00,
2013-02-06 15:00:00,19.0,10.0,29.86,WNW,292,14.0,16.0,69,0.00,,,0.00,TxWx,2013-02-06 20:00:00,
2013-02-06 15:05:00,18.0,9.0,29.86,WNW,292,8.0,10.0,70,0.00,,,0.00,TxWx,2013-02-06 20:05:00,
2013-02-06 15:10:00,18.0,9.0,29.87,NNE,22,6.0,17.0,71,0.00,,,0.00,TxWx,2013-02-06 20:10:00,
2013-02-06 15:16:00,17.0,8.0,29.87,NNW,337,6.0,8.0,70,0.00,,,0.00,TxWx,2013-02-06 20:16:00,
2013-02-06 15:21:00,17.0,8.0,29.88,NW,315,8.0,12.0,70,0.00,,,0.00,TxWx,2013-02-06 20:21:00,
2013-02-06 15:26:00,17.0,8.0,29.88,WSW,247,9.0,14.0,69,0.00,,,0.00,TxWx,2013-02-06 20:26:00,
2013-02-06 15:31:00,17.0,7.0,29.88,West,270,6.0,6.0,69,0.00,,,0.00,TxWx,2013-02-06 20:31:00,
2013-02-06 15:36:00,17.0,7.0,29.88,SSW,202,6.0,7.0,69,0.00,,,0.00,TxWx,2013-02-06 20:36:00,
2013-02-06 15:41:00,17.0,7.0,29.88,WSW,247,6.0,8.0,68,0.00,,,0.00,TxWx,2013-02-06 20:41:00,
2013-02-06 15:46:00,17.0,7.0,29.89,NW,315,5.0,7.0,68,0.00,,,0.00,TxWx,2013-02-06 20:46:00,
2013-02-06 15:51:00,17.0,7.0,29.89,West,270,6.0,9.0,68,0.00,,,0.00,TxWx,2013-02-06 20:51:00,
2013-02-06 15:52:00,-4.0,-8.0,30.12,NW,315,1.0,1.0,87,0.00,,,0.00,TxWx,2013-02-06 20:52:00,
2013-02-06 15:55:00,-4.0,-8.0,30.12,South,180,1.0,1.0,87,0.00,,,0.00,TxWx,2013-02-06 20:55:00,
2013-02-06 15:56:00,17.0,7.0,29.89,NW,315,5.0,5.0,68,0.00,,,0.00,TxWx,2013-02-06 20:56:00,
2013-02-06 15:57:00,-4.0,-8.0,30.12,SSW,202,1.0,1.0,87,0.00,,,0.00,TxWx,2013-02-06 20:57:00,
2013-02-06 15:58:00,-4.0,-8.0,30.12,SSW,202,0.0,0.0,87,0.00,,,0.00,TxWx,2013-02-06 20:58:00,
2013-02-06 15:59:00,-4.0,-8.0,30.12,SSW,202,1.0,1.0,87,0.00,,,0.00,TxWx,2013-02-06 20:59:00,
2013-02-06 16:01:00,16.0,6.0,29.90,WNW,292,5.0,8.0,68,0.00,,,0.00,TxWx,2013-02-06 21:01:00,
2013-02-06 16:06:00,16.0,6.0,29.90,WNW,292,9.0,10.0,69,0.00,,,0.00,TxWx,2013-02-06 21:06:00,
2013-02-06 16:16:00,16.0,6.0,29.91,West,270,5.0,6.0,69,0.00,,,0.00,TxWx,2013-02-06 21:16:00,
2013-02-06 16:21:00,15.0,6.0,29.91,NW,315,13.0,13.0,69,0.00,,,0.00,TxWx,2013-02-06 21:21:00,
2013-02-06 16:26:00,15.0,6.0,29.91,West,270,3.0,5.0,70,0.00,,,0.00,TxWx,2013-02-06 21:26:00,
2013-02-06 16:31:00,15.0,6.0,29.91,West,270,5.0,7.0,70,0.00,,,0.00,TxWx,2013-02-06 21:31:00,
2013-02-06 16:36:00,15.0,6.0,29.92,WNW,292,4.0,8.0,69,0.00,,,0.00,TxWx,2013-02-06 21:36:00,
2013-02-06 16:41:00,15.0,6.0,29.92,WNW,292,5.0,7.0,69,0.00,,,0.00,TxWx,2013-02-06 21:41:00,
2013-02-06 16:46:00,15.0,6.0,29.92,NW,315,8.0,8.0,70,0.00,,,0.00,TxWx,2013-02-06 21:46:00,
2013-02-06 16:51:00,14.0,5.0,29.93,NW,315,6.0,8.0,70,0.00,,,0.00,TxWx,2013-02-06 21:51:00,
2013-02-06 16:56:00,14.0,5.0,29.93,NW,315,9.0,10.0,70,0.00,,,0.00,TxWx,2013-02-06 21:56:00,
2013-02-06 17:01:00,14.0,5.0,29.94,NW,315,3.0,5.0,70,0.00,,,0.00,TxWx,2013-02-06 22:01:00,
2013-02-06 17:06:00,14.0,5.0,29.94,NNW,337,8.0,8.0,70,0.00,,,0.00,TxWx,2013-02-06 22:06:00,
2013-02-06 17:12:00,14.0,5.0,29.94,WNW,292,5.0,6.0,71,0.00,,,0.00,TxWx,2013-02-06 22:12:00,
2013-02-06 17:17:00,13.0,4.0,29.94,WSW,247,5.0,5.0,71,0.00,,,0.00,TxWx,2013-02-06 22:17:00,
2013-02-06 17:22:00,13.0,4.0,29.94,WSW,247,6.0,6.0,70,0.00,,,0.00,TxWx,2013-02-06 22:22:00,
2013-02-06 17:27:00,13.0,4.0,29.95,NW,315,10.0,11.0,70,0.00,,,0.00,TxWx,2013-02-06 22:27:00,
2013-02-06 17:32:00,13.0,4.0,29.95,WNW,292,3.0,5.0,69,0.00,,,0.00,TxWx,2013-02-06 22:32:00,
2013-02-06 17:37:00,13.0,4.0,29.96,SSW,202,1.0,3.0,69,0.00,,,0.00,TxWx,2013-02-06 22:37:00,
2013-02-06 17:42:00,13.0,3.0,29.96,West,270,6.0,10.0,68,0.00,,,0.00,TxWx,2013-02-06 22:42:00,
2013-02-06 17:47:00,12.0,2.0,29.96,SW,225,3.0,5.0,68,0.00,,,0.00,TxWx,2013-02-06 22:47:00,
2013-02-06 17:52:00,12.0,2.0,29.97,NW,315,8.0,10.0,67,0.00,,,0.00,TxWx,2013-02-06 22:52:00,
2013-02-06 17:57:00,12.0,2.0,29.97,NNW,337,6.0,8.0,67,0.00,,,0.00,TxWx,2013-02-06 22:57:00,
2013-02-06 18:02:00,12.0,2.0,29.97,NW,315,5.0,6.0,66,0.00,,,0.00,TxWx,2013-02-06 23:02:00,
2013-02-06 18:08:00,12.0,2.0,29.98,WNW,292,6.0,8.0,66,0.00,,,0.00,TxWx,2013-02-06 23:08:00,
2013-02-06 18:13:00,12.0,2.0,29.98,SW,225,4.0,5.0,66,0.00,,,0.00,TxWx,2013-02-06 23:13:00,
2013-02-06 18:18:00,11.0,1.0,29.98,NW,315,3.0,4.0,66,0.00,,,0.00,TxWx,2013-02-06 23:18:00,
2013-02-06 18:23:00,11.0,1.0,29.98,WSW,247,1.0,3.0,65,0.00,,,0.00,TxWx,2013-02-06 23:23:00,
2013-02-06 18:28:00,11.0,1.0,29.98,WSW,247,1.0,2.0,65,0.00,,,0.00,TxWx,2013-02-06 23:28:00,
2013-02-06 18:33:00,11.0,1.0,29.99,WSW,247,2.0,2.0,65,0.00,,,0.00,TxWx,2013-02-06 23:33:00,
2013-02-06 18:38:00,11.0,0.0,29.99,South,180,1.0,1.0,65,0.00,,,0.00,TxWx,2013-02-06 23:38:00,
2013-02-06 18:43:00,11.0,0.0,29.99,WNW,292,4.0,5.0,65,0.00,,,0.00,TxWx,2013-02-06 23:43:00,
2013-02-06 18:48:00,10.0,-1.0,29.99,West,270,5.0,5.0,65,0.00,,,0.00,TxWx,2013-02-06 23:48:00,
2013-02-06 18:53:00,10.0,-1.0,30.00,WNW,292,5.0,5.0,64,0.00,,,0.00,TxWx,2013-02-06 23:53:00,
2013-02-06 18:58:00,10.0,-1.0,30.01,WNW,292,3.0,5.0,65,0.00,,,0.00,TxWx,2013-02-06 23:58:00,
2013-02-06 19:04:00,10.0,-1.0,30.01,WSW,247,1.0,1.0,65,0.00,,,0.00,TxWx,2013-02-07 00:04:00,
2013-02-06 19:09:00,10.0,0.0,30.01,WSW,247,1.0,1.0,65,0.00,,,0.00,TxWx,2013-02-07 00:09:00,
2013-02-06 19:14:00,9.0,-1.0,30.01,SSW,202,1.0,1.0,66,0.00,,,0.00,TxWx,2013-02-07 00:14:00,
2013-02-06 19:19:00,9.0,-1.0,30.01,SSW,202,1.0,1.0,66,0.00,,,0.00,TxWx,2013-02-07 00:19:00,
2013-02-06 19:24:00,9.0,-1.0,30.01,South,180,1.0,1.0,66,0.00,,,0.00,TxWx,2013-02-07 00:24:00,
2013-02-06 19:29:00,9.0,-1.0,30.01,SSW,202,1.0,1.0,66,0.00,,,0.00,TxWx,2013-02-07 00:29:00,
2013-02-06 19:34:00,9.0,-1.0,30.02,SSW,202,0.0,1.0,67,0.00,,,0.00,TxWx,2013-02-07 00:34:00,
2013-02-06 19:39:00,8.0,-2.0,30.02,South,180,0.0,1.0,67,0.00,,,0.00,TxWx,2013-02-07 00:39:00,
2013-02-06 19:44:00,8.0,-2.0,30.02,WSW,247,1.0,1.0,67,0.00,,,0.00,TxWx,2013-02-07 00:44:00,
2013-02-06 19:49:00,8.0,-2.0,30.02,WNW,292,2.0,3.0,67,0.00,,,0.00,TxWx,2013-02-07 00:49:00,
2013-02-06 19:55:00,8.0,-2.0,30.02,SW,225,1.0,1.0,67,0.00,,,0.00,TxWx,2013-02-07 00:55:00,
2013-02-06 20:00:00,8.0,-2.0,30.03,South,180,0.0,0.0,67,0.00,,,0.00,TxWx,2013-02-07 01:00:00,
2013-02-06 20:05:00,7.0,-2.0,30.03,SW,225,1.0,1.0,68,0.00,,,0.00,TxWx,2013-02-07 01:05:00,
2013-02-06 20:10:00,6.0,-3.0,30.03,SSW,202,1.0,1.0,69,0.00,,,0.00,TxWx,2013-02-07 01:10:00,
2013-02-06 20:15:00,6.0,-3.0,30.03,SSE,157,0.0,0.0,69,0.00,,,0.00,TxWx,2013-02-07 01:15:00,
2013-02-06 20:20:00,6.0,-3.0,30.03,South,180,0.0,0.0,69,0.00,,,0.00,TxWx,2013-02-07 01:20:00,
2013-02-06 20:25:00,6.0,-3.0,30.03,South,180,0.0,0.0,70,0.00,,,0.00,TxWx,2013-02-07 01:25:00,
2013-02-06 20:30:00,6.0,-3.0,30.04,SSW,202,1.0,1.0,70,0.00,,,0.00,TxWx,2013-02-07 01:30:00,
2013-02-06 20:35:00,6.0,-3.0,30.04,South,180,0.0,1.0,71,0.00,,,0.00,TxWx,2013-02-07 01:35:00,
2013-02-06 20:40:00,6.0,-2.0,30.05,SSW,202,1.0,1.0,71,0.00,,,0.00,TxWx,2013-02-07 01:40:00,
2013-02-06 20:45:00,5.0,-3.0,30.05,West,270,1.0,1.0,72,0.00,,,0.00,TxWx,2013-02-07 01:45:00,
2013-02-06 20:51:00,6.0,-2.0,30.05,SSW,202,1.0,1.0,72,0.00,,,0.00,TxWx,2013-02-07 01:51:00,
2013-02-06 20:56:00,6.0,-2.0,30.05,SSE,157,0.0,0.0,72,0.00,,,0.00,TxWx,2013-02-07 01:56:00,
2013-02-06 21:01:00,5.0,-3.0,30.06,NNE,22,1.0,1.0,72,0.00,,,0.00,TxWx,2013-02-07 02:01:00,
2013-02-06 21:06:00,5.0,-3.0,30.05,North,0,1.0,1.0,72,0.00,,,0.00,TxWx,2013-02-07 02:06:00,
2013-02-06 21:11:00,4.0,-4.0,30.06,NE,45,1.0,2.0,72,0.00,,,0.00,TxWx,2013-02-07 02:11:00,
2013-02-06 21:16:00,4.0,-4.0,30.06,SE,135,1.0,1.0,72,0.00,,,0.00,TxWx,2013-02-07 02:16:00,
2013-02-06 21:21:00,4.0,-4.0,30.06,SSE,157,1.0,2.0,73,0.00,,,0.00,TxWx,2013-02-07 02:21:00,
2013-02-06 21:26:00,4.0,-3.0,30.06,South,180,1.0,1.0,74,0.00,,,0.00,TxWx,2013-02-07 02:26:00,
2013-02-06 21:31:00,3.0,-4.0,30.06,SW,225,1.0,1.0,74,0.00,,,0.00,TxWx,2013-02-07 02:31:00,
2013-02-06 21:36:00,3.0,-4.0,30.07,WSW,247,2.0,2.0,75,0.00,,,0.00,TxWx,2013-02-07 02:36:00,
2013-02-06 21:41:00,3.0,-4.0,30.07,SW,225,1.0,2.0,76,0.00,,,0.00,TxWx,2013-02-07 02:41:00,
2013-02-06 21:47:00,2.0,-5.0,30.07,WSW,247,1.0,1.0,76,0.00,,,0.00,TxWx,2013-02-07 02:47:00,
2013-02-06 21:52:00,2.0,-5.0,30.07,SW,225,0.0,1.0,76,0.00,,,0.00,TxWx,2013-02-07 02:52:00,
2013-02-06 21:57:00,2.0,-5.0,30.07,SSW,202,1.0,1.0,77,0.00,,,0.00,TxWx,2013-02-07 02:57:00,
2013-02-06 22:02:00,2.0,-5.0,30.08,South,180,0.0,0.0,77,0.00,,,0.00,TxWx,2013-02-07 03:02:00,
2013-02-06 22:07:00,1.0,-6.0,30.08,South,180,0.0,0.0,77,0.00,,,0.00,TxWx,2013-02-07 03:07:00,
2013-02-06 22:12:00,1.0,-6.0,30.08,South,180,0.0,0.0,77,0.00,,,0.00,TxWx,2013-02-07 03:12:00,
2013-02-06 22:17:00,1.0,-6.0,30.08,SSW,202,0.0,0.0,77,0.00,,,0.00,TxWx,2013-02-07 03:17:00,
2013-02-06 22:22:00,1.0,-5.0,30.09,SSW,202,0.0,0.0,78,0.00,,,0.00,TxWx,2013-02-07 03:22:00,
2013-02-06 22:27:00,1.0,-5.0,30.09,South,180,0.0,0.0,78,0.00,,,0.00,TxWx,2013-02-07 03:27:00,
2013-02-06 22:32:00,0.0,-6.0,30.08,SSW,202,0.0,0.0,78,0.00,,,0.00,TxWx,2013-02-07 03:32:00,
2013-02-06 22:37:00,1.0,-5.0,30.08,NE,45,1.0,1.0,79,0.00,,,0.00,TxWx,2013-02-07 03:37:00,
2013-02-06 22:43:00,0.0,-6.0,30.08,ESE,112,1.0,2.0,79,0.00,,,0.00,TxWx,2013-02-07 03:43:00,
2013-02-06 22:48:00,0.0,-6.0,30.08,SSW,202,1.0,1.0,79,0.00,,,0.00,TxWx,2013-02-07 03:48:00,
2013-02-06 22:53:00,0.0,-6.0,30.08,SW,225,0.0,1.0,79,0.00,,,0.00,TxWx,2013-02-07 03:53:00,
2013-02-06 22:58:00,-1.0,-7.0,30.08,SSW,202,0.0,0.0,79,0.00,,,0.00,TxWx,2013-02-07 03:58:00,
2013-02-06 23:03:00,-1.0,-7.0,30.08,SSW,202,0.0,1.0,80,0.00,,,0.00,TxWx,2013-02-07 04:03:00,
2013-02-06 23:08:00,-1.0,-7.0,30.08,South,180,0.0,0.0,80,0.00,,,0.00,TxWx,2013-02-07 04:08:00,
2013-02-06 23:13:00,-1.0,-7.0,30.09,South,180,1.0,1.0,80,0.00,,,0.00,TxWx,2013-02-07 04:13:00,
2013-02-06 23:18:00,-1.0,-7.0,30.09,South,180,0.0,1.0,81,0.00,,,0.00,TxWx,2013-02-07 04:18:00,
2013-02-06 23:23:00,-1.0,-7.0,30.09,SSE,157,1.0,1.0,81,0.00,,,0.00,TxWx,2013-02-07 04:23:00,
2013-02-06 23:28:00,-1.0,-7.0,30.09,South,180,1.0,1.0,81,0.00,,,0.00,TxWx,2013-02-07 04:28:00,
2013-02-06 23:33:00,7.0,-2.0,30.24,SSE,157,2.0,3.0,69,0.00,,,0.00,TxWx,2013-02-07 04:33:00,
2013-02-06 23:34:00,-2.0,-8.0,30.09,SSW,202,0.0,0.0,81,0.00,,,0.00,TxWx,2013-02-07 04:34:00,
2013-02-06 23:35:00,7.0,-2.0,30.24,SSW,202,4.0,6.0,68,0.00,,,0.00,TxWx,2013-02-07 04:35:00,
2013-02-06 23:36:00,7.0,-2.0,30.24,SW,225,3.0,4.0,68,0.00,,,0.00,TxWx,2013-02-07 04:36:00,
2013-02-06 23:37:00,7.0,-3.0,30.24,SSE,157,1.0,3.0,67,0.00,,,0.00,TxWx,2013-02-07 04:37:00,
2013-02-06 23:38:00,7.0,-3.0,30.24,SSW,202,3.0,5.0,67,0.00,,,0.00,TxWx,2013-02-07 04:38:00,
2013-02-06 23:39:00,-2.0,-8.0,30.09,SSW,202,1.0,1.0,81,0.00,,,0.00,TxWx,2013-02-07 04:39:00,
2013-02-06 23:40:00,7.0,-3.0,30.24,South,180,1.0,1.0,67,0.00,,,0.00,TxWx,2013-02-07 04:40:00,
2013-02-06 23:44:00,-2.0,-7.0,30.10,SSW,202,1.0,1.0,82,0.00,,,0.00,TxWx,2013-02-07 04:44:00,
2013-02-06 23:49:00,-2.0,-7.0,30.10,SW,225,1.0,1.0,83,0.00,,,0.00,TxWx,2013-02-07 04:49:00,
2013-02-06 23:54:00,-2.0,-7.0,30.10,NNE,22,3.0,3.0,84,0.00,,,0.00,TxWx,2013-02-07 04:54:00,
2013-02-06 23:59:00,-2.0,-7.0,30.09,SSW,202,0.0,0.0,83,0.00,,,0.00,TxWx,2013-02-07 04:59:00,